[[{"header":{"parameterUnit":"m.s-1","parameterCategory":1,"la1":30.2991,"la2":30.254,"lo1":-89.0895,"lo2":-89.0444,"dy":0.0017,"dx":0.0017,"nx":28,"ny":28,"refTime":"2024-05-15T03:00:00:Z","depth":0,"parameterNumber":2,"parameterNumberName":"U-component_of_WINDS"},"data":[0,0,0,0,0,0,0,0,0,0,0,0,0,0,0,0,0,0,0,0,0,0,0,0,0,0,0,0,0,0,0,0,0,0,0,0,0,0,0,0,0,0,0,0,0,0,0,0,0,0,0,0,0,0,0,0,0,0,0.3217,0.3218,0,0.3317,0.3318,0.332,0.3289,0.3287,0.3285,0.3283,0.3393,0.3398,0.3403,0,0,0,0,0,0,0,0,0,0,0,0,0,0.3004,0.3008,0.3216,0.3218,0.3219,0.3317,0.3318,0.332,0.3289,0.3287,0.3284,0.3282,0.3392,0.3398,0.3404,0,0,0,0,0,0,0,0,0,0,0,0,0,0.31,0.301,0.3216,0.3215,0.3216,0.3317,0.3319,0.332,0.329,0.3287,0.3283,0.328,0.339,0.3397,0.3404,0.3514,0,0,0.3427,0.343,0,0,0,0,0,0,0,0,0.3095,0.3108,0.3214,0.3216,0.3217,0.3287,0.3284,0.3386,0.3291,0.3262,0.3283,0.3279,0.3361,0.3371,0.3397,0.3519,0.3524,0.3428,0.3432,0.3435,0.3437,0,0,0,0,0,0,0,0.3088,0.3104,0.3257,0.3216,0.3217,0.3212,0.3222,0.3303,0.3329,0.3264,0.3262,0.3274,0.3361,0.339,0.3399,0.3526,0.3427,0.3434,0.3439,0.3441,0.3745,0.3748,0,0,0,0,0,0,0.308,0.3098,0.3253,0.326,0.3146,0.3219,0.323,0.3268,0.3328,0.3333,0.3277,0.3272,0.3379,0.3391,0.3403,0.3537,0.3435,0.3442,0.3446,0.3741,0.3746,0.375,0,0,0,0,0,0,0.3075,0.3094,0.3249,0.3178,0.3198,0.3226,0.3269,0.3272,0.33,0.3337,0.3342,0.3301,0.3377,0.3393,0.3487,0.354,0.3446,0.3452,0.3737,0.3743,0.3748,0.3805,0,0,0,0,0,0,0.3069,0.3092,0.3133,0.3179,0.3201,0.3329,0.3272,0.3276,0.3312,0.3307,0.3361,0.3367,0.3375,0.3476,0.3494,0.3549,0.3458,0.3733,0.374,0.3746,0.3798,0.3812,0.3823,0,0,0,0,0,0.3062,0.3146,0.3135,0.3154,0.3252,0.3332,0.3345,0.3351,0.3316,0.3359,0.3382,0.3365,0.3531,0.3486,0.3506,0.3564,0.3729,0.3738,0.3746,0.3793,0.3809,0.3823,0,0,0,0,0,0,0.3108,0.3152,0.314,0.3242,0.3283,0.3327,0.338,0.3368,0.3422,0.3416,0.3423,0.3435,0.3532,0.3557,0.3506,0.3674,0.3625,0.3638,0.3654,0.367,0.3682,0.3675,0.3464,0,0,0,0,0,0.3129,0.3188,0.3225,0.3311,0.3332,0.3353,0.3388,0.3388,0.3433,0.3451,0.3481,0.3527,0.3589,0.3631,0.369,0.3801,0.3814,0.3851,0.3863,0.3873,0.3885,0.3947,0.3965,0.3777,0.3776,0.3776,0,0,0.3176,0.3207,0.3244,0.3321,0.3353,0.3417,0.3368,0.3437,0.3485,0.3462,0.3552,0.3576,0.3628,0.3731,0.3778,0.3755,0.3939,0.3883,0.3891,0.3897,0.3957,0.3975,0.3991,0.3782,0.3781,0.378,0,0,0.3292,0.3321,0.3396,0.3429,0.3477,0.349,0.3508,0.3554,0.3568,0.3658,0.3643,0.3701,0.3808,0.3845,0.3879,0.4009,0.3996,0.4028,0.4093,0.4154,0.4169,0.4182,0.4231,0.4248,0.4039,0.4039,0.4039,0,0.3345,0.3437,0.3438,0.3508,0.3543,0.3522,0.36,0.3633,0.3699,0.3725,0.3697,0.3831,0.3864,0.3977,0.4008,0.4035,0.4058,0.4023,0.4166,0.4179,0.4192,0.4239,0.4257,0.4043,0.4042,0.4042,0.4042,0,0.35,0.3564,0.362,0.3682,0.3723,0.3797,0.3811,0.3853,0.3849,0.3866,0.3959,0.3998,0.4065,0.4091,0.409,0.4204,0.4189,0.4163,0.4115,0.4213,0.4258,0.4275,0.4048,0.4047,0.4046,0.4045,0,0,0.3651,0.3711,0.3731,0.376,0.3811,0.3862,0.3936,0.3999,0.4036,0.4082,0.4146,0.4236,0.4213,0.4251,0.4253,0.4306,0.4409,0.4274,0.4276,0.43,0.454,0.4561,0.4581,0.4399,0.4403,0.4406,0.4537,0,0.3774,0.39,0.3903,0.402,0.4081,0.4062,0.4126,0.4166,0.4183,0.4239,0.4259,0.4324,0.4287,0.431,0.4361,0.4386,0.4458,0.4376,0.4462,0.4465,0.4452,0.4604,0.4626,0.4748,0.4554,0.4557,0.4559,0,0.3934,0.3983,0.4106,0.4149,0.4175,0.4232,0.4291,0.4343,0.4389,0.4398,0.4439,0.4434,0.4511,0.4458,0.4567,0.4511,0.4546,0.4564,0.4568,0.4579,0.452,0.4622,0.4787,0.4806,0.4585,0.4583,0.4581,0,0.4035,0.4132,0.4218,0.4243,0.4294,0.4335,0.4359,0.4401,0.4439,0.4491,0.4516,0.4577,0.4611,0.466,0.4672,0.4631,0.4781,0.4729,0.4794,0.4794,0.4829,0.4827,0.5005,0.4847,0.4846,0.4846,0.4846,0,0.4174,0.4251,0.4264,0.4318,0.4404,0.4406,0.4492,0.4513,0.455,0.4609,0.4596,0.4653,0.4663,0.4723,0.4733,0.4822,0.4837,0.4849,0.4851,0.4852,0.4851,0.4877,0.487,0.4851,0.485,0.4849,0.4848,0,0.4302,0.4314,0.4407,0.4447,0.4459,0.4521,0.4557,0.4609,0.4624,0.4699,0.4717,0.4741,0.481,0.4826,0.4909,0.4915,0.5023,0.5015,0.5007,0.5007,0.5072,0.5067,0.5276,0.5305,0.5125,0.5127,0.5128,0,0.4391,0.4449,0.4495,0.4532,0.4558,0.4618,0.4656,0.4661,0.4702,0.4758,0.4804,0.4871,0.4925,0.5037,0.5064,0.5127,0.5123,0.5192,0.5133,0.5132,0.5128,0.5125,0.5132,0.5204,0.5206,0.5208,0.5209,0,0.4549,0.4551,0.4605,0.4662,0.4707,0.4753,0.4796,0.4828,0.4839,0.4886,0.4955,0.4997,0.508,0.5148,0.5211,0.5239,0.5228,0.5227,0.5246,0.5248,0.5242,0.5249,0.5041,0.5223,0.5221,0.522,0.522,0.5219,0.4662,0.4713,0.4753,0.4815,0.4847,0.4888,0.4939,0.4959,0.5016,0.5083,0.5082,0.5159,0.5203,0.5287,0.5318,0.5379,0.5359,0.5385,0.5393,0.54,0.5407,0.5229,0.5391,0.539,0.539,0.539,0.5389,0,0.4821,0.4845,0.4901,0.4961,0.501,0.4991,0.5038,0.5081,0.5147,0.5188,0.5241,0.5321,0.5387,0.5418,0.5483,0.5527,0.5523,0.5544,0.5543,0.555,0.5421,0.5399,0.5546,0.5546,0.5546,0.5546,0.5546,0.5546,0.491,0.4996,0.5004,0.5106,0.5131,0.5203,0.5232,0.527,0.5303,0.5393,0.5446,0.5465,0.5503,0.5571,0.5631,0.5638,0.5665,0.5689,0.5694,0.5574,0.5558,0.5543,0.5523,0.5693,0.5694,0.5818,0.5819,0.582]},{"header":{"parameterUnit":"m.s-1","parameterCategory":1,"la1":30.2991,"la2":30.254,"lo1":-89.0895,"lo2":-89.0444,"dy":0.0017,"dx":0.0017,"nx":28,"ny":28,"refTime":"2024-05-15T03:00:00:Z","depth":0,"parameterNumber":3,"parameterNumberName":"V-component_of_WINDS"},"data":[0,0,0,0,0,0,0,0,0,0,0,0,0,0,0,0,0,0,0,0,0,0,0,0,0,0,0,0,0,0,0,0,0,0,0,0,0,0,0,0,0,0,0,0,0,0,0,0,0,0,0,0,0,0,0,0,0,0,1.143,1.1431,0,1.1564,1.1566,1.1568,1.1551,1.1549,1.1547,1.1544,1.1683,1.1689,1.1694,0,0,0,0,0,0,0,0,0,0,0,0,0,1.1159,1.1164,1.143,1.1431,1.1433,1.1564,1.1566,1.1568,1.1551,1.1549,1.1546,1.1544,1.1681,1.1688,1.1695,0,0,0,0,0,0,0,0,0,0,0,0,0,1.1283,1.1165,1.143,1.1441,1.1443,1.1564,1.1566,1.1568,1.1552,1.1549,1.1545,1.1542,1.1679,1.1687,1.1696,1.1814,0,0,1.1722,1.1726,0,0,0,0,0,0,0,0,1.1276,1.1293,1.1437,1.144,1.1443,1.1538,1.1521,1.1651,1.1553,1.1511,1.1544,1.1541,1.1637,1.1649,1.1682,1.1821,1.1827,1.1723,1.1728,1.1732,1.1734,0,0,0,0,0,0,0,1.1268,1.1287,1.1483,1.1439,1.1443,1.1439,1.1453,1.1546,1.1591,1.1514,1.1513,1.1529,1.1638,1.1673,1.1685,1.1829,1.1723,1.173,1.1735,1.1739,1.2072,1.2076,0,0,0,0,0,0,1.1256,1.128,1.1479,1.1487,1.135,1.1447,1.1462,1.1511,1.159,1.1599,1.1532,1.1528,1.166,1.1675,1.169,1.1834,1.1732,1.174,1.1745,1.2069,1.2073,1.2077,0,0,0,0,0,0,1.125,1.1274,1.1473,1.1384,1.1409,1.1455,1.1509,1.1515,1.155,1.1603,1.1611,1.156,1.1658,1.1677,1.1783,1.1839,1.1744,1.1751,1.2064,1.207,1.2075,1.2124,0,0,0,0,0,0,1.1243,1.1272,1.1318,1.1385,1.1413,1.1565,1.1512,1.152,1.1565,1.1561,1.1631,1.164,1.1657,1.1771,1.1792,1.1849,1.1758,1.206,1.2067,1.2073,1.2118,1.2131,1.2142,0,0,0,0,0,1.1233,1.1326,1.132,1.1344,1.1471,1.1568,1.1585,1.1603,1.1569,1.1616,1.165,1.1638,1.1829,1.1782,1.1806,1.1866,1.2056,1.2065,1.2073,1.2113,1.2128,1.2142,0,0,0,0,0,0,1.1265,1.1335,1.1329,1.1447,1.1502,1.1565,1.1625,1.1619,1.1685,1.1679,1.1698,1.1714,1.1821,1.1854,1.18,1.1985,1.1938,1.1951,1.196,1.1976,1.1987,1.1978,1.1765,0,0,0,0,0,1.1285,1.1358,1.1416,1.1514,1.1542,1.1578,1.1621,1.163,1.1688,1.1711,1.1753,1.181,1.1883,1.1931,1.2001,1.2122,1.2137,1.2175,1.2187,1.2196,1.2209,1.2276,1.2293,1.2104,1.2104,1.2104,0,0,1.1329,1.1376,1.1421,1.1521,1.1565,1.164,1.1598,1.1679,1.1736,1.1724,1.1827,1.1859,1.1924,1.2038,1.2091,1.2069,1.2264,1.2207,1.2214,1.2221,1.2286,1.2304,1.232,1.211,1.2109,1.2108,0,0,1.1447,1.149,1.1577,1.1621,1.1688,1.1711,1.1732,1.1797,1.1818,1.1921,1.1914,1.1981,1.2106,1.2152,1.2192,1.2327,1.2319,1.2349,1.2412,1.2478,1.2493,1.2506,1.2555,1.2572,1.236,1.2361,1.2361,0,1.1493,1.1606,1.1622,1.1705,1.1749,1.1741,1.183,1.1872,1.1958,1.1989,1.1963,1.2119,1.2162,1.2288,1.232,1.2353,1.2377,1.2342,1.2489,1.2503,1.2515,1.2562,1.2581,1.2364,1.2364,1.2363,1.2363,0,1.166,1.1738,1.1801,1.1884,1.1935,1.202,1.2049,1.2099,1.2103,1.2129,1.2235,1.2285,1.2366,1.2396,1.2401,1.2522,1.2506,1.2484,1.2438,1.2536,1.2581,1.2599,1.2369,1.2368,1.2367,1.2366,0,0,1.1804,1.1894,1.1917,1.1955,1.2027,1.2088,1.2172,1.225,1.2293,1.2352,1.2424,1.253,1.251,1.2555,1.2565,1.2622,1.2726,1.2593,1.2595,1.2617,1.2864,1.2882,1.2902,1.272,1.2724,1.2727,1.2859,0,1.193,1.208,1.2096,1.223,1.2303,1.2296,1.2369,1.2421,1.2448,1.2514,1.2543,1.2618,1.2585,1.2612,1.2668,1.2702,1.2777,1.2692,1.2788,1.2792,1.2774,1.2926,1.2945,1.3068,1.2877,1.288,1.2882,0,1.2098,1.2162,1.2303,1.2365,1.2397,1.2462,1.2536,1.2598,1.2657,1.2672,1.2723,1.2725,1.2812,1.276,1.2881,1.2823,1.2863,1.2885,1.2891,1.2902,1.2844,1.2943,1.3107,1.3126,1.2909,1.2907,1.2905,0,1.2191,1.2312,1.2412,1.2444,1.2519,1.2566,1.2599,1.2654,1.27,1.2764,1.2794,1.2867,1.2907,1.2964,1.2985,1.2946,1.3105,1.3055,1.3121,1.3121,1.3157,1.3155,1.3332,1.318,1.3179,1.3179,1.3179,0,1.2332,1.2418,1.2455,1.2517,1.2614,1.2631,1.2727,1.2758,1.2807,1.2875,1.2872,1.2936,1.296,1.3027,1.3045,1.3143,1.316,1.3176,1.318,1.3177,1.3175,1.3205,1.3198,1.3184,1.3183,1.3182,1.3181,0,1.2452,1.248,1.2589,1.265,1.2668,1.2737,1.2789,1.2849,1.2874,1.2959,1.2981,1.302,1.3099,1.3126,1.3222,1.3234,1.3348,1.3344,1.3329,1.333,1.3395,1.3389,1.3599,1.3628,1.3454,1.3456,1.3457,0,1.2541,1.2608,1.2676,1.2721,1.2756,1.2829,1.2876,1.2895,1.2944,1.3016,1.3067,1.3146,1.321,1.3337,1.3374,1.3448,1.3446,1.3514,1.3457,1.3453,1.3449,1.3446,1.3453,1.3526,1.3528,1.3529,1.353,0,1.2696,1.2706,1.2774,1.2847,1.2903,1.2961,1.3017,1.3054,1.3081,1.3136,1.3218,1.3267,1.3365,1.3443,1.3518,1.3552,1.3547,1.3548,1.3567,1.3566,1.3555,1.3564,1.336,1.3543,1.3542,1.3541,1.354,1.354,1.2805,1.2864,1.2922,1.2997,1.3041,1.3093,1.3153,1.3185,1.3253,1.3334,1.3341,1.3429,1.3485,1.3585,1.3623,1.3692,1.3673,1.37,1.3708,1.3715,1.3721,1.3543,1.3705,1.3705,1.3704,1.3704,1.3704,0,1.2961,1.2998,1.3067,1.3145,1.3205,1.3193,1.3254,1.3305,1.3382,1.3435,1.3498,1.3591,1.3667,1.371,1.3786,1.3833,1.3832,1.3852,1.385,1.3858,1.3733,1.3709,1.3851,1.3851,1.3851,1.3851,1.3851,1.3851,1.305,1.315,1.3166,1.3288,1.3323,1.341,1.3446,1.3494,1.3537,1.3641,1.3704,1.3731,1.378,1.3859,1.3928,1.3939,1.3968,1.399,1.3999,1.3882,1.3867,1.3852,1.383,1.3996,1.3996,1.4119,1.412,1.4121]}]]